487  
ASUS45 KBOU 050510  
RWRCO  
 
WEATHER ROUNDUP FOR COLORADO  
NATIONAL WEATHER SERVICE DENVER/BOULDER CO  
1000 PM MST MON MAR 04 2024  
 
NOTE: "FAIR" INDICATES FEW OR NO CLOUDS BELOW 12000 FEET WITH NO  
SIGNIFICANT WEATHER AND/OR S TO VISIBILITY
.  
 
COZ001>005-013-030-031-050600-   
..NORTHWEST COLORADO
 
 
 
CITY SKY/WX TMP DP RH WIND PRES REMARKS
 
CRAIG LGT SNOW 22 18 85 CALM 30.05R FOG  
HAYDEN FLURRIES 21 18 88 NW8 30.04R WCI 11  
MEEKER CLOUDY 24 23 96 CALM 30.01R  
RANGELY FAIR 27 21 76 CALM 30.03R  
RABBIT EARS PA SNOW 12 12 100 W5 29.91R VSB 1/2 WCI 4  
STEAMBOAT SPGS NOT AVBL  
WALDEN NOT AVBL  

 
 
COZ006>008-011-050600-   
..WEST CENTRAL VALLEYS
 
 
 
CITY SKY/WX TMP DP RH WIND PRES REMARKS
 
GRAND JUNCTION FAIR 34 30 85 CALM 29.97R  
MONTROSE FAIR 30 26 85 S10 29.99R WCI 21  
EAGLE CLOUDY 31 24 75 CALM 29.98R  
RIFLE CLOUDY 36 25 64 CALM 30.00R  
DELTA NOT AVBL  
NUCLA NOT AVBL  

 
 
COZ017>023-064>068-050600-   
..SOUTHWEST COLORADO
 
 
 
CITY SKY/WX TMP DP RH WIND PRES REMARKS
 
DURANGO FAIR 28 14 55 E5 29.98R WCI 23  
CORTEZ FAIR 29 18 63 NE10 29.98R WCI 20  
PAGOSA SPRINGS FAIR 28 19 68 CALM 30.01R  
TELLURIDE FAIR 32 9 37 NE3 30.01R  
WOLF CREEK PAS FAIR 18 10 73 SW20G28 30.07R WCI 1  

 
 
COZ009-010-012-014-032>034-037-058>063-050600-   
..CENTRAL COLORADO
 
 
 
CITY SKY/WX TMP DP RH WIND PRES REMARKS
 
ASPEN CLOUDY 23 21 92 CALM 29.96R  
BUENA VISTA FAIR 36 10 34 W18G37 29.89R  
COPPER MTN LGT SNOW 19 12 73 SW16G22 29.95R WCI 5  
BERTHOUD PASS CLOUDY 10 5 79 W25G46 29.88R WCI -10  
DAKOTA HILL MOCLDY 18 9 68 W15G28 29.88R WCI 3  
COTTONWOOD PAS CLOUDY 30 10 43 W16G36 29.93R WCI 19  
GUNNISON FAIR 26 19 74 NE3 29.97R  
GRANBY LGT SNOW 23 19 85 SE3 29.94R  
KREMMLING FLURRIES 21 18 86 S6 29.96R WCI 14  
LEADVILLE CLOUDY 19 12 74 E5 29.92R WCI 12  
MONARCH PASS N/A 16 10 79 W30G38 30.07R WCI -4  
SALIDA FAIR 37 13 37 VRB5 29.91R  
SUNLIGHT FLURRIES 18 14 86 SW12G24 29.98R WCI 5  
WILKERSON PASS FAIR 21 12 68 S16G25 29.95R WCI 7  

 
 
COZ069>075-050600-   
..SAN LUIS VALLEY/SANGRE DE CRISTO MOUNTAINS
 
 
 
CITY SKY/WX TMP DP RH WIND PRES REMARKS
 
ALAMOSA FAIR 30 12 47 S13 29.95R WCI 20  
DEL NORTE FAIR 35 11 37 W22 29.95S WCI 24  
LA VETA PASS FAIR 27 9 46 W16G25 30.05S WCI 14  
SAGUACHE FAIR 30 14 51 W12 29.97R WCI 21  

 
 
COZ035-036-038>040-050600-   
..NORTHERN COLORADO FRONT RANGE
 
 
 
CITY SKY/WX TMP DP RH WIND PRES REMARKS
 
DENVER INTL AP FAIR 31 21 66 NE10 29.89R WCI 22  
AURORA PTCLDY 30 19 63 NW5 29.90R WCI 26  
WATKINS NOT AVBL  
ERIE FAIR 30 22 74 S5 29.91R WCI 25  
BOULDER FAIR 34 23 64 SW5 29.91R WCI 30  
CENTENNIAL FAIR 31 20 63 CALM 29.91R  
BROOMFIELD PTCLDY 30 21 69 W7 29.91R WCI 23  
FORT COLLINS CLOUDY 35 18 49 N14G24 29.93R WCI 26  
LONGMONT FAIR 34 24 67 CALM 29.92S  

 
 
COZ041-046-047-076>085-087-088-050600-   
..PIKES PEAK/PALMER DIVIDE AND SOUTHERN FOOTHILLS
 
 
 
CITY SKY/WX TMP DP RH WIND PRES REMARKS
 
COLO. SPRINGS FAIR 36 13 38 SE6 29.90R  
A. F. ACADEMY FAIR 30 12 46 CALM 29.88R  
SCHRIEVER AFB FAIR 32 13 45 NE3 29.86S  
CHEYENNE MTN FAIR 34 13 42 S6 29.87S WCI 29  
ELLICOTT FAIR 25 12 56 CALM 29.90S  
FALCON FAIR 29 12 50 CALM 29.91S  
FORT CARSON FAIR 36 13 39 N3 29.87R  
LIMON FAIR 28 11 48 SE5 29.88R WCI 23  
MONUMENT HILL FAIR 28 -9 19 SW8 29.91S WCI 20  
CANON CITY FAIR 32 16 51 W9 29.89S WCI 24  
WALSENBURG NOT AVBL  
TRINIDAD FAIR 33 15 47 NW12 29.88R WCI 24  

 
 
COZ042>045-048>051-090-091-050600-   
..NORTHEAST COLORADO
 
 
 
CITY SKY/WX TMP DP RH WIND PRES REMARKS
 
GREELEY CLOUDY 37 24 59 N7 29.94R  
AKRON FAIR 29 6 38 SE5 29.90R WCI 24  
BURLINGTON FAIR 28 11 48 S9 29.90S WCI 19  
WRAY FAIR 30 3 31 NE9 29.92S WCI 22  
YUMA FAIR 28 1 31 SE3 29.91R  
STERLING MOCLDY 36 10 35 N6 29.95R  
HOLYOKE FAIR 30 9 40 CALM 29.94R  
FORT MORGAN FAIR 34 9 35 NE15 29.92R WCI 24  

 
 
COZ086-089-092>099-050600-   
..SOUTHEAST COLORADO
 
 
 
CITY SKY/WX TMP DP RH WIND PRES REMARKS
 
PUEBLO FAIR 32 14 47 W6 29.88R WCI 26  
LA JUNTA FAIR 34 18 52 E8 29.87R WCI 27  
LAMAR FAIR 32 18 56 E6 29.89R WCI 26  
SPRINGFIELD N/A 33 17 51 S8 29.89R WCI 26  

 
 
 
CLICK HERE TO GO TO PREVIOUS BULLETINS.

The Nexlab CO Page Main Text Page